This is the latest recevied weather packets stored in our database for station/object F5LKO-13. If no packets are shown the sender has not sent any weather packets the latest 10 day(s).
| Time | Temp. | Humidity | Pressure | Rain* | Wind** | Luminosity | Snow |
|---|---|---|---|---|---|---|---|
| 1777560789 | 25° C | 99% | 1018.6 hPa | 0 mm | - | 30 W/m² | - |
| 1777560483 | 25° C | 99% | 1018.5 hPa | 0 mm | - | 32 W/m² | - |
| 1777560177 | 25° C | 99% | 1018.5 hPa | 0 mm | - | 35 W/m² | - |
| 1777559871 | 25° C | 99% | 1018.4 hPa | 0 mm | - | 36 W/m² | - |
| 1777559573 | 25.56° C | 99% | 1018.4 hPa | 0 mm | - | 39 W/m² | - |
| 1777559258 | 25.56° C | 99% | 1018.4 hPa | 0 mm | - | 41 W/m² | - |
| 1777558952 | 25.56° C | 99% | 1018.4 hPa | 0 mm | - | 44 W/m² | - |
| 1777558646 | 26.11° C | 99% | 1018.4 hPa | 0 mm | - | 47 W/m² | - |
| 1777558340 | 26.11° C | 99% | 1018.4 hPa | 0 mm | - | 49 W/m² | - |
| 1777558034 | 26.67° C | 99% | 1018.4 hPa | 0 mm | - | 52 W/m² | - |
| 1777557736 | 26.67° C | 99% | 1018.4 hPa | 0 mm | - | 54 W/m² | - |
| 1777557420 | 26.67° C | 99% | 1018.4 hPa | 0 mm | - | 56 W/m² | - |
| 1777557114 | 26.11° C | 99% | 1018.3 hPa | 0 mm | - | 63 W/m² | - |
| 1777556808 | 25.56° C | 99% | 1018.2 hPa | 0 mm | - | 63 W/m² | - |
| 1777556503 | 26.11° C | 99% | 1018.3 hPa | 0 mm | - | 64 W/m² | - |
| 1777556196 | 26.11° C | 99% | 1018.2 hPa | 0 mm | - | 69 W/m² | - |
| 1777555898 | 26.11° C | 99% | 1018.2 hPa | 0 mm | - | 70 W/m² | - |
| 1777555584 | 26.11° C | 99% | 1018.3 hPa | 0 mm | - | 74 W/m² | - |
| 1777555277 | 26.67° C | 99% | 1018.3 hPa | 0 mm | - | 73 W/m² | - |
| 1777554972 | 26.67° C | 99% | 1018.2 hPa | 0 mm | - | 71 W/m² | - |
| 1777554665 | 27.22° C | 99% | 1018.2 hPa | 0 mm | - | 77 W/m² | - |
| 1777554359 | 26.67° C | 99% | 1018.2 hPa | 0 mm | - | 81 W/m² | - |
| 1777554062 | 28.33° C | 99% | 1018.1 hPa | 0 mm | - | 99 W/m² | - |
| 1777553746 | 28.33° C | 99% | 1018 hPa | 0 mm | - | 83 W/m² | - |
| 1777553440 | 27.78° C | 99% | 1018.1 hPa | 0 mm | - | 88 W/m² | - |
* Rain latest hour (hover to see other rain measurements)
** Current wind speed in m/s (hover to see current wind gust speed)